Location: Briarwood
(39.0812°N, 76.8511°W)
Time: 22:24:24
(UTC+00:00)

Iridium 4 Rocket - Pass Details

Date: 10 September 2024
Orbit: 580 x 894 km, 86.9° (Epoch: 06 October)

Event Time Altitude Azimuth Distance (km) Brightness Sun altitude
Rises 23:45:16 0° 10° (N) 2,835 6.5 -5.1°
Reaches altitude 10° 23:47:45 10° 23° (NNE) 1,912 5.5 -5.6°
Maximum altitude 23:51:18 27° 82° (E) 1,135 3.9 -6.3°
Drops below altitude 10° 23:54:50 10° 141° (SE) 1,901 5.1 -7.0°
Sets 23:57:17 0° 153° (SSE) 2,816 6.1 -7.4°
